TimeEST,TemperatureF,Dew PointF,Humidity,Sea Level PressureIn,VisibilityMPH,Wind Direction,Wind SpeedMPH,Gust SpeedMPH,PrecipitationIn,Events,Conditions,WindDirDegrees,DateUTC
12:54 AM,37.0,27.0,67,30.16,10.0,Calm,Calm,-,N/A,,Clear,0,2012-11-06 05:54:00
1:54 AM,33.1,26.1,75,30.16,10.0,WNW,3.5,-,N/A,,Clear,290,2012-11-06 06:54:00
2:54 AM,32.0,25.0,75,30.16,10.0,Calm,Calm,-,N/A,,Clear,0,2012-11-06 07:54:00
3:54 AM,30.9,25.0,79,30.16,10.0,West,3.5,-,N/A,,Clear,280,2012-11-06 08:54:00
4:54 AM,32.0,25.0,75,30.16,10.0,Calm,Calm,-,N/A,,Clear,0,2012-11-06 09:54:00
5:54 AM,30.9,26.1,82,30.15,10.0,North,3.5,-,N/A,,Clear,10,2012-11-06 10:54:00
6:54 AM,28.9,24.1,82,30.17,10.0,Calm,Calm,-,N/A,,Clear,0,2012-11-06 11:54:00
7:54 AM,30.9,25.0,79,30.21,10.0,Calm,Calm,-,N/A,,Mostly Cloudy,0,2012-11-06 12:54:00
8:54 AM,34.0,27.0,75,30.20,10.0,Calm,Calm,-,N/A,,Overcast,0,2012-11-06 13:54:00
9:54 AM,35.1,28.0,76,30.18,10.0,Calm,Calm,-,N/A,,Overcast,0,2012-11-06 14:54:00
10:54 AM,36.0,27.0,70,30.18,10.0,Calm,Calm,-,N/A,,Overcast,0,2012-11-06 15:54:00
11:54 AM,37.9,28.0,68,30.15,10.0,South,3.5,-,N/A,,Overcast,180,2012-11-06 16:54:00
12:54 PM,39.0,28.0,65,30.12,10.0,Calm,Calm,-,N/A,,Overcast,0,2012-11-06 17:54:00
1:34 PM,39.2,28.4,65,30.08,10.0,SE,3.5,-,N/A,,Overcast,140,2012-11-06 18:34:00
1:54 PM,39.0,28.0,65,30.09,10.0,South,3.5,-,N/A,,Overcast,170,2012-11-06 18:54:00
2:54 PM,39.9,28.0,63,30.07,10.0,Calm,Calm,-,N/A,,Partly Cloudy,0,2012-11-06 19:54:00
3:54 PM,39.9,28.0,63,30.06,10.0,East,4.6,-,N/A,,Partly Cloudy,80,2012-11-06 20:54:00
4:54 PM,39.0,28.0,65,30.04,10.0,Calm,Calm,-,N/A,,Mostly Cloudy,0,2012-11-06 21:54:00
5:54 PM,39.0,28.0,65,30.05,10.0,Calm,Calm,-,N/A,,Overcast,0,2012-11-06 22:54:00
6:54 PM,39.0,28.0,65,30.05,10.0,Calm,Calm,-,N/A,,Mostly Cloudy,0,2012-11-06 23:54:00
7:54 PM,37.9,28.9,70,30.05,10.0,Calm,Calm,-,N/A,,Mostly Cloudy,0,2012-11-07 00:54:00
8:54 PM,37.9,28.9,70,30.05,10.0,Calm,Calm,-,N/A,,Mostly Cloudy,0,2012-11-07 01:54:00
9:54 PM,37.9,28.9,70,30.03,10.0,East,3.5,-,N/A,,Overcast,80,2012-11-07 02:54:00
10:54 PM,37.0,30.0,76,30.02,10.0,Calm,Calm,-,N/A,,Overcast,0,2012-11-07 03:54:00
11:54 PM,35.1,30.0,82,30.01,10.0,Calm,Calm,-,N/A,,Overcast,0,2012-11-07 04:54:00